FW5156 Weather Reports


Display with metric or nautical units.
time (UTC)temp
F
wind
direction
speed
MPH
gust
MPH
rain 1hr
in
rain 24hr
in
rain mn
in
humidity
%
barometer
mb
20260905015516 82 0.0 0.0 0.00 0.00 0.00 79 1014.8
20260905014516 82 0.0 0.0 0.00 0.00 0.00 80 1014.6
20260905013516 82 0.0 0.0 0.00 0.00 0.00 80 1014.6
20260905012536 82 0.0 0.0 0.00 0.00 0.00 81 1014.4
20260905011516 82 0.0 0.0 0.00 0.00 0.00 80 1014.3
20260905010516 82 0.0 0.0 0.00 0.00 0.00 81 1014.3
20260905005516 83 0.0 0.0 0.00 0.00 0.00 81 1014.2
20260905004516 83 0.0 0.0 0.00 0.00 0.00 82 1014.2
20260905003516 84 0.0 0.0 0.00 0.00 0.00 82 1014.0
20260905002516 84 0.0 0.0 0.00 0.00 0.00 81 1014.2
20260905001516 85 0.0 0.0 0.00 0.00 0.00 80 1014.3
20260905000516 85 0.0 0.0 0.00 0.00 0.00 79 1014.2
20260904235516 87 0.0 0.0 0.00 0.00 0.00 78 1014.2
20260904234516 88 0.0 0.0 0.00 0.00 0.00 76 1014.3
20260904233516 89 0.0 0.0 0.00 0.00 0.00 74 1014.4
20260904232516 90 0.0 0.0 0.00 0.00 0.00 71 1014.3
20260904231516 92 0.0 0.0 0.00 0.00 0.00 69 1014.2
20260904230516 92 0.0 0.0 0.00 0.00 0.00 66 1014.2
20260904225516 94 0.0 0.0 0.00 0.00 0.00 64 1014.3
20260904224516 95 0.0 0.0 0.00 0.00 0.00 62 1014.4
20260904223516 95 0.0 2.0 0.00 0.00 0.00 60 1014.3
20260904222556 95 0.0 2.0 0.00 0.00 0.00 58 1014.3
20260904221516 95 0.0 1.0 0.00 0.00 0.00 59 1014.3
20260904220516 95 0.0 2.0 0.00 0.00 0.00 58 1014.3
20260904215516 95 0.0 2.0 0.00 0.00 0.00 58 1014.3
20260904214516 95 0.0 3.0 0.00 0.00 0.00 57 1014.3
20260904213516 95 0.0 3.0 0.00 0.00 0.00 57 1014.4
20260904212516 96 248 1.0 3.0 0.00 0.00 0.00 56 1014.4
20260904211516 96 0.0 4.0 0.00 0.00 0.00 56 1014.6
20260904210516 96 293 1.0 4.0 0.00 0.00 0.00 55 1014.6
20260904205516 96 0.0 3.0 0.00 0.00 0.00 54 1014.9
20260904204537 96 0.0 2.0 0.00 0.00 0.00 56 1015.0
20260904203516 97 0.0 2.0 0.00 0.00 0.00 53 1015.1
20260904202516 96 0.0 3.0 0.00 0.00 0.00 54 1015.2
20260904201516 96 0.0 3.0 0.00 0.00 0.00 57 1015.3
20260904200516 95 0.0 5.0 0.00 0.00 0.00 54 1015.4
20260904195517 96 225 1.0 4.0 0.00 0.00 0.00 55 1015.4
20260904194516 96 203 1.0 5.0 0.00 0.00 0.00 56 1015.7
20260904193516 96 315 2.0 6.0 0.00 0.00 0.00 55 1015.8
20260904192516 96 270 2.0 8.0 0.00 0.00 0.00 54 1016.0
20260904191536 96 0.0 3.0 0.00 0.00 0.00 56 1016.1
20260904190516 96 0.0 4.0 0.00 0.00 0.00 53 1016.1
20260904185516 95 0.0 4.0 0.00 0.00 0.00 56 1016.3
20260904184536 95 315 1.0 4.0 0.00 0.00 0.00 55 1016.4
20260904183516 95 203 1.0 7.0 0.00 0.00 0.00 57 1016.6
20260904182516 95 203 1.0 5.0 0.00 0.00 0.00 56 1016.7
20260904181516 94 225 1.0 5.0 0.00 0.00 0.00 58 1016.7
20260904180516 95 315 2.0 7.0 0.00 0.00 0.00 59 1016.8
20260904175516 94 203 1.0 5.0 0.00 0.00 0.00 58 1016.9
20260904174516 95 315 1.0 7.0 0.00 0.00 0.00 55 1016.9
20260904173516 95 293 1.0 4.0 0.00 0.00 0.00 57 1017.1
20260904172516 95 338 1.0 9.0 0.00 0.00 0.00 57 1017.3
20260904171516 94 0.0 1.0 0.00 0.00 0.00 59 1017.3
20260904170516 93 225 1.0 8.0 0.00 0.00 0.00 59 1017.5
20260904165536 93 270 1.0 6.0 0.00 0.00 0.00 59 1017.5
20260904164536 93 0.0 3.0 0.00 0.00 0.00 61 1017.4
20260904163516 92 0.0 3.0 0.00 0.00 0.00 63 1017.5
20260904162516 93 0.0 2.0 0.00 0.00 0.00 63 1017.4
20260904161516 92 270 1.0 19.0 0.00 0.00 0.00 64 1017.6
20260904160536 90 270 1.0 11.0 0.00 0.00 0.00 65 1017.4
20260904155516 91 0.0 2.0 0.00 0.00 0.00 67 1017.6
20260904154516 89 270 1.0 5.0 0.00 0.00 0.00 68 1017.4
20260904153516 89 225 1.0 8.0 0.00 0.00 0.00 67 1017.5
20260904152516 89 0.0 3.0 0.00 0.00 0.00 70 1017.5
20260904151516 89 248 2.0 6.0 0.00 0.00 0.00 69 1017.6
20260904150557 89 315 1.0 5.0 0.00 0.00 0.00 68 1017.5
20260904145536 88 248 1.0 4.0 0.00 0.00 0.00 71 1017.4
20260904144517 87 0.0 0.0 0.00 0.00 0.00 71 1017.3
20260904143516 86 0.0 4.0 0.00 0.00 0.00 72 1017.3
20260904142556 86 248 1.0 8.0 0.00 0.00 0.00 72 1017.3
20260904141557 86 0.0 0.0 0.00 0.00 0.00 74 1017.2
20260904140516 84 0.0 5.0 0.00 0.00 0.00 76 1017.1
20260904135516 83 0.0 1.0 0.00 0.00 0.00 77 1016.9
20260904134516 83 0.0 5.0 0.00 0.00 0.00 79 1016.8
20260904133516 82 293 1.0 5.0 0.00 0.00 0.00 78 1017.0
20260904132516 82 0.0 2.0 0.00 0.00 0.00 80 1017.0
20260904131516 81 0.0 0.0 0.00 0.00 0.00 81 1017.1
20260904130516 80 0.0 0.0 0.00 0.00 0.00 83 1017.1
20260904125516 78 0.0 0.0 0.00 0.00 0.00 84 1017.0
20260904124516 77 0.0 0.0 0.00 0.00 0.00 86 1017.0
20260904123516 77 0.0 0.0 0.00 0.00 0.00 85 1016.8
20260904122516 77 0.0 0.0 0.00 0.00 0.00 86 1016.6
20260904121516 77 0.0 0.0 0.00 0.00 0.00 85 1016.5
20260904120516 77 0.0 3.0 0.00 0.00 0.00 85 1016.4
20260904115516 76 0.0 0.0 0.00 0.00 0.00 85 1016.2
20260904114516 76 0.0 0.0 0.00 0.00 0.00 85 1016.1
20260904113516 76 0.0 0.0 0.00 0.00 0.00 85 1016.0
20260904112517 76 0.0 0.0 0.00 0.00 0.00 85 1016.0
20260904111536 76 0.0 0.0 0.00 0.00 0.00 85 1016.0
20260904110536 76 0.0 0.0 0.00 0.00 0.00 85 1016.0
20260904104516 77 0.0 0.0 0.00 0.00 0.00 85 1016.1
20260904103516 77 0.0 0.0 0.00 0.00 0.00 85 1016.1
20260904102516 77 0.0 0.0 0.00 0.00 0.00 86 1016.0
20260904101516 77 0.0 1.0 0.00 0.00 0.00 86 1016.1
20260904100516 77 0.0 0.0 0.00 0.00 0.00 86 1016.1
20260904095516 77 0.0 0.0 0.00 0.00 0.00 86 1016.1
20260904094516 77 0.0 0.0 0.00 0.00 0.00 86 1016.1
20260904093516 77 0.0 0.0 0.00 0.00 0.00 85 1016.1
20260904092516 78 0.0 0.0 0.00 0.00 0.00 85 1016.1
20260904091516 78 0.0 0.0 0.00 0.00 0.00 85 1016.0
20260904090556 78 0.0 0.0 0.00 0.00 0.00 84 1016.0
20260904085517 78 0.0 2.0 0.00 0.00 0.00 84 1015.8
20260904084536 78 0.0 1.0 0.00 0.00 0.00 84 1015.8
20260904083536 78 0.0 1.0 0.00 0.00 0.00 84 1015.9
20260904082516 78 0.0 0.0 0.00 0.00 0.00 83 1016.0
20260904081516 78 0.0 0.0 0.00 0.00 0.00 84 1015.9
20260904080516 78 0.0 0.0 0.00 0.00 0.00 84 1016.0
20260904075516 79 0.0 0.0 0.00 0.00 0.00 83 1016.0
20260904074536 79 0.0 0.0 0.00 0.00 0.00 83 1016.1
20260904072517 79 0.0 0.0 0.00 0.00 0.00 83 1016.2
20260904071516 79 0.0 0.0 0.00 0.00 0.00 84 1016.2
20260904070517 79 0.0 0.0 0.00 0.00 0.00 84 1016.2
20260904065516 79 0.0 0.0 0.00 0.00 0.00 85 1016.2
20260904064556 79 0.0 0.0 0.00 0.00 0.00 85 1016.3
20260904063516 78 0.0 0.0 0.00 0.00 0.00 85 1016.4
20260904062516 79 0.0 0.0 0.00 0.00 0.00 85 1016.4
20260904061516 79 0.0 0.0 0.00 0.00 0.00 85 1016.4
20260904060516 79 0.0 0.0 0.00 0.00 0.00 84 1016.5
20260904055516 79 0.0 0.0 0.00 0.00 0.00 83 1016.5
20260904054516 80 0.0 0.0 0.00 0.00 0.00 83 1016.5
20260904053537 80 0.0 0.0 0.00 0.00 0.00 83 1016.4
20260904052516 80 0.0 0.0 0.00 0.00 0.00 82 1016.4
20260904051517 80 0.0 0.0 0.00 0.00 0.00 82 1016.4
20260904050517 80 0.0 0.0 0.00 0.00 0.00 82 1016.3
20260904045516 80 0.0 0.0 0.00 0.00 0.00 82 1016.3
20260904044516 80 0.0 0.0 0.00 0.00 0.00 82 1016.2
20260904043516 80 0.0 0.0 0.00 0.00 0.00 82 1016.2
20260904042516 80 0.0 0.0 0.00 0.00 0.00 82 1016.2
20260904041516 80 0.0 0.0 0.00 0.00 0.00 82 1016.1
20260904040517 80 0.0 0.0 0.00 0.00 0.00 84 1016.1
20260904035516 80 0.0 0.0 0.00 0.00 0.00 83 1016.1
20260904034536 80 0.0 0.0 0.00 0.00 0.00 84 1016.0
20260904033516 80 0.0 0.0 0.00 0.00 0.00 85 1016.0
20260904032516 80 0.0 0.0 0.00 0.00 0.00 85 1016.1
20260904031537 81 0.0 0.0 0.00 0.00 0.00 85 1016.1
20260904030536 81 0.0 0.0 0.00 0.00 0.00 85 1016.2
20260904025537 81 0.0 0.0 0.00 0.00 0.00 84 1016.3
20260904024516 81 0.0 0.0 0.00 0.00 0.00 83 1016.3
20260904023536 81 0.0 0.0 0.00 0.00 0.00 83 1016.3
20260904022516 82 0.0 0.0 0.00 0.00 0.00 82 1016.2
20260904021536 82 0.0 0.0 0.00 0.00 0.00 81 1016.2
20260904020516 82 0.0 0.0 0.00 0.00 0.00 81 1016.1